Theta_e
289 288 287 287 290 289 290 290 292 289 286 285 284 283 283 285 286 286 286 288 286 288 288 289 288 288 289 287 287 288 288 287 286 285 285 286 286 286 286 285 286 285 285 288 287 287 287 287 287 288 288 288 289 289 289 290 291 291 292 293 293 294 296 297 298 298 299 299 298 297 295 294 295 295 295 294 293 293 293 293 294 295 295 296 297 298
291 287 287 290 290 289 290 288 285 285 285 287 285 285 285 284 286 286 289 287 286 289 285 283 285 288 288 286 286 287 286 285 285 285 285 285 285 285 285 285 285 286 287 287 287 286 286 286 287 287 287 287 287 287 288 288 289 290 291 291 292 293 294 295 296 297 297 297 296 295 294 293 292 292 292 291 291 291 292 292 292 293 293 294 294 295
286 287 290 292 288 286 285 286 286 287 286 285 286 283 284 285 285 286 287 286 287 288 287 283 287 288 287 285 286 285 284 285 285 285 285 285 284 285 285 285 285 286 285 286 286 286 285 286 286 286 286 286 286 286 286 287 288 289 290 290 291 292 293 294 295 296 295 295 296 295 294 293 291 292 292 291 291 291 290 290 291 291 292 292 292 293
285 286 290 288 287 288 285 284 285 285 285 284 283 284 284 284 287 285 286 286 287 286 286 285 285 288 284 285 285 285 285 284 285 285 284 285 284 284 284 284 285 284 285 285 284 284 285 285 285 285 285 285 286 285 285 286 287 288 288 289 290 290 291 292 294 295 295 294 293 293 293 292 292 290 291 290 290 289 288 287 289 289 290 291 291 292
289 289 288 288 287 289 288 284 285 284 284 284 285 284 285 284 285 288 286 286 284 286 284 286 285 286 283 285 284 285 286 285 285 284 284 285 285 285 285 285 285 284 284 284 284 284 284 284 284 284 285 285 284 285 284 285 285 286 287 288 289 289 290 290 291 292 294 294 293 292 292 292 290 290 289 288 286 287 287 286 286 287 288 288 289 290
287 290 286 287 286 287 287 284 285 286 284 283 283 287 288 287 287 284 285 288 282 285 284 286 282 280 280 282 283 284 284 284 284 283 283 285 284 285 284 284 285 285 284 283 283 283 283 283 284 284 284 284 284 284 284 285 285 285 286 287 288 289 289 289 290 291 291 291 291 291 289 287 286 285 285 284 284 284 285 285 286 287 287 287 287 288
289 289 290 289 286 285 286 286 284 288 284 284 287 286 288 287 286 284 284 285 281 280 285 282 282 277 281 283 283 283 282 283 284 283 284 284 284 284 284 284 284 284 284 284 284 284 283 283 283 283 283 284 284 284 284 284 284 285 285 286 287 287 288 289 289 290 290 289 289 287 287 286 285 284 284 285 286 285 285 286 286 286 287 287 287 287
288 288 287 287 286 286 285 285 285 288 285 284 285 284 286 285 285 284 284 285 281 282 284 283 283 279 277 285 284 283 282 282 283 283 283 284 284 284 284 284 284 284 284 283 283 283 283 283 282 282 283 283 283 283 284 284 284 284 284 285 285 286 286 287 288 289 289 287 287 286 286 285 285 284 284 285 285 286 286 285 285 286 286 286 286 286
289 287 287 287 287 285 287 287 286 289 287 284 285 284 285 286 285 283 285 283 281 284 282 281 283 282 277 282 281 283 283 281 282 282 283 283 284 284 284 284 284 284 284 283 283 283 283 283 283 283 283 283 283 283 283 283 283 284 284 284 284 284 285 285 286 287 287 287 286 285 285 284 285 285 284 285 285 285 286 285 285 285 286 286 286 286
288 288 288 290 288 287 286 285 286 289 289 285 283 283 282 282 282 282 281 282 282 280 276 281 283 279 278 281 281 283 282 282 282 283 283 284 284 284 284 284 284 283 283 283 283 282 283 283 283 282 282 282 282 283 283 283 283 283 284 284 283 283 284 284 285 285 285 285 285 285 284 284 283 284 284 285 284 284 285 284 284 285 285 285 285 286
287 289 290 288 288 288 284 283 284 286 285 285 285 285 283 281 280 279 278 277 277 273 278 282 282 284 278 282 284 282 284 284 284 283 283 283 283 284 284 284 284 283 283 282 282 282 282 282 281 281 282 282 282 283 282 283 283 283 283 283 282 282 283 283 284 284 284 284 284 284 284 284 283 284 284 283 283 284 284 283 284 284 284 285 285 285
287 287 288 287 287 285 285 285 284 283 284 285 286 281 284 282 279 276 269 275 273 272 274 277 279 281 277 279 281 283 282 283 286 284 283 283 284 284 284 284 283 283 282 282 282 282 282 281 282 282 282 282 282 282 282 282 282 282 282 282 282 282 282 283 283 283 283 283 284 283 283 283 283 284 283 283 282 283 283 283 283 284 284 284 284 284
285 286 285 288 288 288 285 285 285 284 286 284 283 285 280 272 271 273 270 274 273 274 277 278 279 280 281 283 283 283 283 282 285 286 285 285 285 285 284 284 283 283 282 282 282 282 282 282 281 281 281 282 282 282 281 282 282 282 282 282 281 281 281 282 282 282 282 283 283 283 283 283 283 283 283 283 282 283 283 283 283 283 283 283 283 283
284 283 285 288 288 288 289 286 282 282 284 283 285 281 276 271 269 264 266 264 269 274 276 279 279 278 280 283 285 285 284 283 283 282 285 286 286 285 285 284 283 282 282 282 282 281 281 282 282 281 281 281 281 281 282 282 282 282 281 281 281 280 281 281 281 282 282 282 282 282 283 283 283 283 283 283 282 282 283 283 283 282 283 282 283 283
278 281 285 287 286 288 290 290 288 285 284 284 283 284 281 273 266 267 265 273 274 273 274 275 275 272 278 283 280 282 281 281 281 281 282 284 284 285 284 283 283 282 282 282 281 281 281 282 281 282 281 281 281 281 281 281 281 281 281 281 281 280 281 281 281 281 281 282 282 282 282 282 283 282 282 282 283 282 282 282 282 283 283 283 283 283
283 282 284 286 285 288 289 287 286 286 285 282 281 283 281 281 279 278 270 268 265 270 272 272 276 278 283 280 280 280 280 280 281 281 281 283 283 283 282 282 282 282 282 281 281 281 281 281 281 281 281 281 281 281 281 281 281 281 281 281 281 281 281 281 281 281 281 281 281 282 282 282 283 283 282 282 282 282 282 282 282 282 282 282 282 283
280 281 284 286 285 286 287 285 287 287 284 283 283 279 282 283 280 272 271 270 270 270 274 270 277 280 282 282 279 279 280 281 280 281 281 283 283 282 283 282 282 282 282 281 281 281 281 281 281 281 281 281 281 281 281 281 281 281 281 281 281 281 281 281 281 281 281 281 281 281 281 281 282 282 282 282 282 282 282 282 282 282 281 282 282 282
282 279 284 285 285 286 285 285 285 284 286 284 279 283 283 284 282 280 276 268 263 270 273 273 277 279 280 279 281 281 280 281 280 280 281 283 282 281 283 283 283 283 282 282 281 281 281 281 282 281 281 281 281 281 281 281 281 281 281 281 281 281 281 281 281 281 281 281 281 281 281 281 281 281 281 281 281 281 281 281 281 281 281 281 281 281
286 282 283 283 284 286 284 286 287 287 286 283 281 284 285 279 279 278 273 272 269 268 270 271 275 276 280 283 280 281 281 283 281 280 280 282 281 282 283 283 283 282 281 281 281 281 281 281 281 281 281 281 280 281 280 281 281 281 281 281 281 281 282 282 282 282 282 282 282 282 281 281 281 281 281 281 281 281 281 281 281 281 281 281 281 280
287 282 281 284 284 285 285 286 282 283 287 286 286 285 285 283 276 276 279 274 274 270 266 274 273 276 280 283 283 286 284 285 282 280 281 283 283 283 284 284 283 282 282 281 281 281 281 281 281 281 281 281 280 280 280 281 281 281 281 281 281 281 281 281 282 282 281 282 282 281 281 281 281 281 281 281 281 280 280 280 280 280 280 280 280 280
285 285 278 282 284 284 282 284 284 284 282 282 282 282 283 278 282 280 278 276 277 267 268 270 276 275 279 281 284 287 286 285 283 282 283 283 283 284 285 285 284 283 282 282 282 281 281 281 281 281 281 281 281 281 281 281 281 281 281 281 281 281 281 281 281 281 281 281 280 280 280 280 280 280 280 280 280 279 279 279 279 279 279 279 279 279
284 283 281 279 281 281 282 283 284 285 286 285 285 283 286 281 279 277 278 279 272 275 274 267 277 279 281 280 282 282 282 285 285 285 284 284 284 284 285 284 284 283 282 283 282 281 281 281 281 281 281 281 281 281 281 281 281 281 281 281 281 280 280 280 280 281 280 280 280 280 279 279 279 279 279 278 278 278 278 278 278 278 278 277 277 278
288 282 279 276 280 283 283 284 282 284 284 285 285 284 287 285 284 279 278 278 273 277 274 272 269 280 281 281 281 282 281 283 284 283 284 284 284 285 285 284 283 284 283 283 282 281 281 281 281 281 281 281 281 281 281 281 281 281 280 280 280 280 280 280 280 280 280 280 279 278 278 278 278 277 278 277 277 277 277 277 277 277 276 276 276 276
291 283 280 279 280 280 283 282 283 282 285 286 285 281 283 284 284 285 284 281 279 273 274 271 273 277 283 281 280 281 281 282 283 284 284 285 285 284 284 283 283 283 283 282 281 281 281 281 281 281 281 281 281 281 282 282 282 281 280 280 280 279 279 279 279 280 279 278 278 277 277 277 277 277 277 277 277 276 276 276 275 275 275 274 274 274
286 286 285 278 276 278 280 284 284 284 284 282 282 282 284 285 282 280 279 276 275 276 277 277 276 280 284 279 279 280 281 281 282 283 283 283 283 283 283 283 284 283 281 281 281 280 280 281 280 281 281 281 282 282 282 282 282 281 281 280 281 281 280 279 279 279 279 278 277 276 277 276 277 276 276 276 276 275 274 274 274 274 273 273 273 273
289 286 285 280 278 276 276 276 277 279 283 283 281 281 282 285 282 281 279 276 278 276 279 279 280 285 283 281 282 281 280 281 282 282 282 282 283 283 283 284 283 282 282 281 281 280 280 281 281 281 281 282 282 282 282 282 281 280 281 280 280 280 279 279 279 279 278 277 277 276 276 276 276 276 275 275 274 273 273 272 272 272 272 272 271 271
287 285 286 287 285 283 282 279 282 284 281 281 280 283 284 284 285 285 280 279 280 279 280 283 284 284 285 283 283 282 281 281 282 281 282 282 282 283 284 284 283 282 282 282 281 281 281 281 281 281 282 282 282 281 281 281 280 280 280 279 279 279 279 278 278 278 277 277 276 276 276 275 275 275 274 273 273 272 271 271 270 270 270 270 270 269
286 285 286 285 284 281 279 281 283 285 284 284 283 281 282 282 281 283 282 281 282 279 279 286 283 282 285 284 284 283 282 281 283 283 283 281 283 283 284 283 284 282 282 281 281 281 281 281 282 281 281 281 281 281 280 280 280 280 279 279 278 278 278 278 277 277 276 276 276 275 275 274 274 273 273 272 271 270 270 269 269 268 269 268 268 268
285 284 286 286 286 286 283 284 284 285 284 284 284 284 282 282 280 280 282 284 283 283 281 284 282 284 286 286 285 285 285 285 284 285 285 284 283 282 282 282 283 282 281 281 281 281 282 282 282 281 281 281 280 280 280 279 279 278 278 278 277 277 277 277 276 276 275 275 275 274 274 273 273 272 271 270 269 268 268 267 267 267 267 267 267 267
286 284 285 286 285 286 285 284 283 284 283 283 283 283 284 282 281 283 284 285 284 284 287 285 282 283 286 283 285 287 287 286 284 283 283 283 282 282 282 282 283 282 281 281 282 282 282 282 282 281 281 280 280 280 280 279 278 278 278 277 276 276 276 276 276 275 274 274 273 273 271 271 270 270 269 268 267 266 266 266 266 266 265 265 265 265
287 284 287 285 283 285 286 282 282 283 283 282 284 284 284 284 282 283 284 285 285 284 284 280 282 282 283 283 286 285 284 284 283 284 283 282 281 281 281 282 282 283 282 282 282 282 282 282 281 281 280 280 280 280 280 279 278 277 277 276 276 276 275 275 274 274 273 273 272 270 270 269 268 268 267 266 266 265 264 265 264 264 264 264 264 264
287 283 282 282 281 282 283 282 282 280 280 280 282 284 284 281 281 283 281 284 283 282 283 282 280 282 284 284 283 281 282 284 285 284 282 281 281 281 281 281 281 282 282 282 282 281 281 280 280 280 280 280 280 279 279 278 278 276 276 276 275 275 274 274 273 273 272 271 270 269 268 268 267 266 265 265 264 264 263 263 263 263 263 262 263 263
285 283 281 280 280 282 279 280 279 279 280 279 281 284 285 285 285 283 282 283 285 286 282 280 282 287 284 283 283 282 281 282 282 281 281 281 281 281 281 281 282 282 282 282 282 281 280 280 280 280 281 280 279 279 279 279 277 277 276 275 275 273 273 272 272 271 270 269 268 267 267 266 265 265 264 263 263 262 262 261 262 261 261 261 262 262
285 284 282 284 279 277 272 277 279 278 273 277 284 282 287 286 285 282 281 281 283 285 285 285 284 281 282 283 283 283 281 281 283 283 283 283 281 280 280 281 281 281 281 281 281 280 280 280 280 280 280 280 280 279 279 278 278 277 276 274 273 272 272 271 270 270 269 267 267 266 266 265 264 263 263 262 262 262 261 261 261 261 261 261 261 261
284 284 283 283 280 275 275 277 276 271 276 281 275 277 275 278 283 284 285 283 282 284 284 282 281 279 281 282 283 282 282 280 279 280 280 280 281 281 281 280 280 280 281 280 279 279 279 280 279 279 278 278 278 278 277 277 276 274 273 272 272 271 270 270 269 268 267 266 266 265 264 264 263 262 262 262 261 261 261 260 260 261 261 260 261 261
283 284 281 278 276 274 272 276 271 274 278 277 277 276 277 277 278 281 279 280 280 282 283 282 284 283 281 281 278 278 279 278 276 275 277 278 280 281 279 280 280 280 280 280 280 280 279 279 279 279 279 278 277 276 277 276 274 273 272 271 271 270 270 269 268 267 266 265 265 264 264 263 262 262 261 261 260 260 260 260 260 260 260 260 260 260
286 284 283 279 281 274 275 274 278 281 280 281 276 277 276 277 277 278 275 278 280 281 281 281 283 283 283 280 277 276 276 277 277 278 276 277 278 279 281 281 281 280 281 281 280 281 280 280 279 279 278 276 276 276 276 274 273 272 270 269 269 268 268 267 267 266 265 264 264 264 264 263 262 261 261 260 259 259 259 260 259 259 259 259 259 259
285 284 284 281 279 280 275 273 272 273 273 279 279 278 278 278 278 278 278 275 278 275 279 281 282 283 281 277 277 276 276 276 274 277 277 277 277 278 278 279 279 279 279 279 278 278 278 278 277 277 277 275 275 275 274 272 272 271 270 269 267 267 267 266 267 266 265 264 263 263 263 263 261 260 260 259 258 258 260 259 259 258 259 258 258 258
282 283 282 283 279 276 275 274 274 273 276 279 277 275 275 276 277 276 273 271 276 273 278 280 281 282 281 277 275 276 272 268 270 276 277 277 275 275 277 278 278 277 278 278 278 277 276 277 277 276 275 274 273 273 271 271 270 270 269 268 267 267 267 267 266 265 264 264 263 263 262 261 261 260 259 258 259 258 258 258 258 258 258 258 257 257
279 278 280 277 276 277 276 275 273 277 275 277 272 275 275 275 277 277 268 269 276 274 276 279 279 279 276 275 274 274 274 267 272 276 277 278 277 275 277 277 277 276 276 275 275 276 276 275 274 273 273 273 274 272 270 269 269 269 269 268 267 266 267 267 266 265 264 263 262 261 261 260 259 259 258 258 258 257 257 257 256 257 257 257 257 257
278 276 278 275 278 278 278 275 275 275 280 276 275 275 276 275 276 268 270 274 277 275 275 277 276 275 274 273 275 272 276 277 277 277 275 275 276 275 275 276 276 277 276 275 276 277 275 275 276 275 275 275 273 270 269 268 269 269 268 267 266 266 267 266 265 263 263 262 261 260 259 259 258 257 257 257 257 257 257 256 257 257 256 255 256 256
273 273 273 277 274 276 277 274 275 278 280 275 275 277 277 278 268 270 277 277 277 275 273 275 275 274 275 275 276 277 278 277 274 274 274 275 276 276 276 275 275 275 275 274 275 275 274 274 274 273 272 271 271 269 268 268 269 269 267 266 266 268 266 264 263 263 261 261 260 259 258 256 256 257 255 255 255 255 255 256 255 256 255 255 255 254
275 274 273 275 275 272 273 273 272 270 278 277 277 276 276 272 273 276 275 274 275 273 274 274 275 275 276 275 276 277 276 275 275 275 274 273 274 275 274 275 275 276 275 273 274 274 274 273 273 273 274 271 269 268 268 268 268 268 266 266 268 265 263 263 262 261 261 260 258 257 256 255 255 255 254 254 255 254 254 254 254 254 254 254 254 254
275 270 266 271 277 271 274 271 272 279 277 279 279 275 275 278 278 275 276 274 274 273 275 276 275 275 276 277 276 276 275 275 274 273 273 273 273 274 273 273 273 273 273 273 274 274 273 274 274 273 270 268 267 267 268 267 268 267 266 268 266 262 262 261 261 260 259 257 256 255 255 253 253 253 253 253 253 253 252 253 253 253 254 254 254 254
277 273 273 273 275 273 272 275 275 274 278 279 280 278 279 279 276 276 276 277 276 274 274 275 277 276 275 276 276 276 274 274 275 275 275 275 275 274 274 274 274 274 274 274 274 272 272 274 273 272 268 266 265 266 266 267 269 266 266 267 262 262 261 260 258 258 256 255 254 254 253 252 252 251 252 252 253 253 254 253 252 253 253 253 253 254
273 274 273 272 272 274 274 274 274 274 275 277 278 277 277 277 274 274 274 275 276 276 276 276 276 276 276 275 274 273 274 275 275 274 273 273 273 273 273 272 272 272 271 271 270 270 271 270 267 268 267 265 264 264 265 265 267 266 268 264 262 261 260 258 257 257 256 254 253 253 252 252 252 252 252 252 253 253 253 253 253 254 254 254 254 253
271 273 272 272 271 271 268 274 274 275 275 276 278 278 276 275 276 274 274 275 276 275 276 276 276 276 276 275 276 276 276 275 274 274 274 274 273 273 273 273 274 273 272 271 273 269 268 268 268 267 267 266 264 263 264 263 264 265 261 260 261 260 258 257 257 257 256 255 255 254 252 252 253 253 252 252 253 253 253 254 253 253 254 254 253 253
272 275 272 272 272 272 270 272 273 273 273 275 277 276 277 278 276 275 276 276 274 274 275 275 273 273 273 272 275 276 276 275 274 275 274 274 274 274 273 273 273 272 271 272 270 269 268 268 270 269 267 268 266 264 263 262 262 260 259 260 260 257 257 257 257 258 257 257 256 255 253 253 254 255 254 253 252 253 253 253 253 253 254 254 254 253
274 274 265 270 272 270 273 273 273 273 274 274 274 275 277 278 276 276 275 275 274 274 273 273 274 274 274 276 276 276 275 274 274 275 274 274 273 273 273 274 273 273 272 271 269 268 270 270 269 269 268 269 267 264 262 262 261 259 259 260 258 257 258 258 258 258 257 255 253 253 253 253 253 253 253 253 252 252 253 253 253 254 254 255 255 256
273 272 271 270 266 265 268 272 273 267 266 274 275 277 277 278 277 276 275 273 274 275 274 274 273 273 274 274 275 275 274 275 273 273 273 274 274 274 273 273 272 272 271 270 269 268 269 269 269 269 269 269 265 263 262 261 260 258 259 258 257 257 258 258 257 256 255 254 253 252 252 253 252 251 252 252 252 252 252 256 260 259 257 257 261 265
275 276 274 271 272 267 272 274 276 277 276 276 276 278 278 277 276 275 276 276 276 276 275 275 274 272 272 272 272 273 274 275 274 273 273 273 274 274 274 273 272 271 271 268 267 265 267 268 268 267 267 267 264 263 262 261 260 258 258 258 257 257 257 257 256 256 255 254 253 253 252 252 252 252 251 252 252 251 253 253 255 261 265 266 266 267
Wind_Speed
1 5 6 9 9 11 8 11 8 2 4 4 4 3 4 5 6 2 2 2 1 1 7 8 6 7 10 4 5 4 4 6 5 5 4 3 4 4 4 3 3 3 3 4 4 5 6 7 6 6 6 6 7 8 8 8 10 10 7 9 11 6 6 7 7 7 6 7 7 10 10 9 8 8 8 10 10 11 9 11 11 11 10 11 11 11
2 5 9 11 6 9 9 4 4 3 3 2 2 3 5 3 8 3 1 2 2 3 3 1 2 8 7 4 5 4 4 5 4 4 4 3 3 2 2 2 2 1 1 5 6 7 7 7 8 7 7 9 10 9 9 9 8 7 8 9 6 6 8 9 7 6 8 7 7 9 8 9 8 8 10 9 10 9 9 11 12 11 10 11 11 10
2 10 11 9 4 4 3 5 3 5 3 2 3 3 2 7 4 7 1 1 1 3 7 1 2 8 1 3 4 5 4 2 3 2 1 1 0 1 2 2 4 4 5 5 6 6 7 8 9 8 8 7 6 6 7 7 8 9 8 7 7 7 7 7 7 7 7 6 6 8 6 7 9 9 8 9 7 8 10 11 11 10 10 10 10 11
3 5 15 3 7 6 2 3 4 2 1 4 2 2 8 2 1 4 1 1 1 1 1 0 3 7 3 4 5 3 2 2 3 3 3 2 1 0 2 2 3 5 5 6 6 7 8 7 8 7 7 6 5 6 8 9 8 6 7 7 7 7 7 7 7 7 7 9 10 10 10 10 9 8 6 8 8 9 11 13 10 10 10 10 10 10
10 2 1 7 6 7 5 3 5 5 6 2 5 5 4 3 5 7 4 0 1 0 1 1 4 8 1 3 1 2 3 3 2 3 3 2 1 2 3 2 4 3 4 4 5 7 7 8 7 6 6 5 6 7 8 8 7 5 7 6 7 7 7 6 6 6 5 6 8 7 8 7 8 7 7 8 11 9 9 9 12 10 10 10 10 10
8 5 4 6 2 3 4 3 7 8 5 2 6 12 9 6 8 3 1 0 3 3 1 3 2 4 1 5 5 4 2 1 1 3 0 0 2 2 2 2 3 3 3 3 4 5 5 5 5 6 6 6 6 8 8 6 6 6 6 6 7 7 7 7 8 6 5 5 6 5 7 9 9 11 9 10 8 8 10 9 6 10 10 10 10 11
6 0 5 5 5 4 5 5 4 8 5 1 6 10 11 7 3 3 3 4 1 2 1 1 7 4 5 2 7 5 5 4 1 2 3 2 2 1 1 1 1 2 3 4 3 4 5 6 5 5 6 5 7 7 5 6 6 6 6 7 7 7 7 7 8 6 6 9 8 11 10 9 9 10 7 5 5 6 6 6 9 9 10 10 10 11
3 0 3 2 4 5 4 7 5 10 7 4 1 4 4 4 6 6 6 7 3 1 2 1 1 3 3 6 3 6 7 5 4 5 5 5 5 5 4 3 2 1 1 1 2 3 3 3 3 4 5 5 5 4 5 6 6 7 7 8 8 7 7 7 7 9 6 9 8 10 11 9 9 9 8 6 6 5 5 8 8 7 8 9 9 9
5 4 5 4 4 4 8 5 6 9 8 3 0 3 5 6 5 6 6 4 1 0 6 2 1 1 4 6 2 3 4 6 9 8 9 9 8 7 7 6 5 4 3 2 1 1 2 2 2 3 4 4 5 5 6 6 5 5 6 8 8 10 9 7 9 9 9 8 8 9 8 11 7 7 7 6 5 7 5 10 7 8 7 8 9 9
2 3 7 7 7 7 3 1 8 11 6 1 7 8 7 8 7 5 4 5 1 1 6 5 3 3 6 6 1 1 4 9 9 11 12 11 11 10 8 8 7 5 3 3 3 2 2 2 3 3 2 3 4 4 5 6 5 6 6 8 12 11 8 7 9 9 10 9 7 9 8 12 8 7 6 6 7 7 6 9 8 7 8 7 8 9
1 4 3 5 6 4 5 3 1 1 2 7 5 8 6 8 5 3 6 3 3 3 6 8 7 6 6 5 8 8 9 5 7 3 4 6 7 8 8 8 7 6 5 4 3 2 3 3 3 1 3 2 4 4 5 5 6 5 7 9 13 9 7 7 9 9 10 8 7 8 8 10 11 8 7 8 8 6 7 8 7 7 7 7 7 7
1 2 0 1 4 4 4 4 4 1 3 5 2 4 5 3 5 4 3 5 1 6 5 3 3 0 8 5 6 7 4 6 14 14 15 13 13 12 10 8 7 6 6 5 4 4 2 1 0 1 3 4 4 4 5 5 5 6 6 9 13 9 8 7 7 9 9 8 9 9 8 10 9 8 7 9 9 6 8 7 7 5 6 7 6 7
3 6 2 1 3 8 3 8 3 3 0 3 6 7 7 3 3 2 1 2 6 6 0 3 1 1 10 8 4 2 8 5 6 7 17 17 15 12 10 9 7 6 6 6 6 5 4 5 5 4 4 4 4 5 5 5 5 5 7 8 13 9 7 7 7 10 9 10 9 8 9 8 7 8 8 7 8 5 7 6 6 6 7 5 7 7
5 1 2 3 2 5 8 8 3 1 4 3 7 7 6 1 1 2 4 1 5 5 4 1 1 3 3 8 7 9 7 4 3 3 3 13 15 14 11 9 7 7 7 7 6 6 6 6 5 4 4 4 4 4 5 5 6 5 7 7 12 9 6 7 8 9 10 9 8 7 7 7 7 7 7 7 7 6 5 5 6 6 6 6 6 6
2 2 6 9 4 4 9 8 11 7 10 9 1 6 7 7 6 4 4 4 5 4 1 4 1 6 5 5 3 1 2 3 2 3 3 3 4 6 6 6 7 7 7 7 6 7 7 6 5 5 4 4 4 4 5 5 5 6 7 7 10 10 7 8 8 8 9 8 7 7 6 7 6 7 7 6 5 5 6 5 6 5 5 5 5 5
5 4 3 1 1 4 11 0 6 6 5 0 2 4 5 6 4 2 4 3 1 1 1 1 6 4 6 2 2 1 1 1 1 4 3 6 6 5 6 8 9 8 8 7 7 7 7 6 5 4 4 4 4 5 4 6 6 7 7 7 8 9 7 7 8 7 8 7 6 7 8 7 7 6 6 6 5 5 5 5 6 5 4 4 4 3
2 3 1 2 3 2 3 3 0 2 6 4 5 5 6 1 7 6 2 2 1 3 9 3 6 5 5 1 2 1 2 2 1 4 6 8 8 7 9 9 9 9 8 7 8 8 7 6 5 5 5 5 5 5 6 6 5 7 8 8 8 7 6 7 7 7 6 6 7 7 6 6 7 7 8 7 7 6 4 5 5 5 5 4 4 4
8 4 1 3 3 1 0 1 3 4 3 9 3 8 1 1 4 4 3 1 2 4 7 3 9 2 5 7 1 1 2 5 6 7 7 7 7 10 11 11 12 10 8 8 7 6 6 6 6 6 5 6 6 6 6 6 5 5 6 8 9 8 9 6 6 7 6 7 7 6 6 6 6 7 7 6 7 5 5 5 4 4 5 5 4 4
4 2 1 1 1 1 1 2 5 2 2 4 3 2 5 2 1 1 3 4 1 5 6 4 3 5 8 7 2 7 8 10 9 7 7 11 12 14 13 12 10 7 7 7 8 7 8 8 7 7 7 6 5 5 5 5 5 4 5 5 6 9 7 7 5 5 4 5 5 5 6 6 6 5 6 5 5 4 6 6 5 6 5 4 5 4
0 4 2 0 2 1 0 3 7 4 1 1 2 3 0 1 1 5 6 3 5 5 2 7 4 8 8 7 15 13 16 13 10 9 13 17 18 15 14 14 13 11 9 9 9 9 9 8 8 8 8 7 7 7 6 6 5 6 6 6 5 4 4 5 5 5 6 5 5 5 5 4 5 5 6 5 6 7 7 5 5 5 5 5 4 5
3 1 5 1 2 2 3 4 9 13 9 2 2 2 0 0 2 3 1 4 3 4 4 3 10 3 6 4 10 13 15 14 16 17 14 14 14 15 15 15 13 11 10 10 10 10 9 9 8 7 7 6 5 5 5 6 7 7 6 7 7 8 6 6 5 5 6 5 5 6 6 6 5 7 6 7 7 7 6 5 5 5 4 4 6 5
2 3 7 3 2 4 6 2 1 4 5 8 12 11 12 8 4 3 8 3 1 2 6 3 14 2 2 2 3 2 1 7 12 14 14 13 15 17 14 12 11 11 11 11 10 9 8 8 8 7 5 5 6 6 7 6 5 6 8 7 6 5 6 7 6 6 6 5 5 6 6 6 6 6 6 7 6 7 5 5 5 5 5 6 5 5
4 3 6 4 7 8 3 1 2 0 1 1 4 6 9 6 6 5 9 5 2 4 4 2 1 11 2 2 1 3 3 5 8 6 10 14 16 16 15 11 9 10 11 10 9 8 9 9 8 8 8 8 8 8 8 7 7 8 7 6 6 7 7 6 7 6 5 6 6 7 6 7 6 6 6 7 6 6 6 5 5 5 5 5 5 5
4 2 3 1 1 2 2 1 1 0 1 0 3 2 4 8 8 9 6 5 7 2 3 1 4 6 1 1 3 4 4 3 7 10 13 11 11 11 11 10 11 10 7 6 6 7 7 7 7 7 8 8 8 8 8 8 7 6 6 7 7 8 8 6 5 5 6 6 7 6 7 6 5 6 6 6 5 6 5 5 5 5 5 4 4 4
5 4 7 3 0 1 2 1 1 1 0 3 3 4 4 3 1 1 5 2 0 8 8 8 15 5 2 2 2 1 1 5 9 8 6 8 6 6 8 8 8 6 6 7 9 9 8 8 9 10 9 9 8 8 8 8 7 7 8 7 8 6 5 5 5 6 6 8 8 5 6 5 5 6 6 6 5 5 5 5 4 4 4 4 4 5
4 3 9 9 12 8 8 10 11 10 9 2 1 1 5 11 8 4 5 3 8 2 9 7 13 2 1 2 1 0 2 2 3 4 3 4 5 8 9 10 9 9 9 9 9 9 11 12 10 7 8 8 9 9 9 8 7 7 7 7 5 6 5 5 5 6 7 6 8 6 6 5 5 6 5 5 5 5 4 4 5 4 4 5 4 4
1 2 5 10 11 12 4 1 1 7 5 6 5 11 10 9 11 9 2 5 13 4 8 12 10 5 7 3 5 6 5 7 6 6 9 9 9 9 8 9 10 10 10 11 10 9 7 6 10 10 9 10 9 8 8 8 8 8 7 6 4 5 6 6 6 6 6 6 7 6 5 5 5 4 5 4 4 4 4 4 4 4 4 4 4 4
2 1 4 4 7 2 2 1 0 3 8 7 8 8 8 8 9 13 13 12 7 4 12 10 4 6 11 6 8 6 6 6 7 7 8 6 9 11 11 8 7 7 6 6 6 8 10 12 10 10 11 10 9 8 7 7 8 8 8 7 5 5 6 5 6 6 7 7 6 5 5 4 4 4 5 4 4 4 4 4 4 4 4 4 4 5
4 4 3 1 7 4 1 1 1 1 0 3 7 9 10 12 9 13 13 11 9 12 16 8 8 10 13 9 11 11 12 12 13 14 13 7 3 4 5 9 11 11 8 8 10 11 11 10 11 12 11 10 8 10 9 8 7 5 5 5 6 5 6 6 7 7 7 7 7 5 4 4 4 4 4 4 4 4 4 4 4 4 4 4 4 4
3 4 2 2 5 6 4 4 2 3 1 1 4 7 11 11 13 13 16 12 11 11 12 8 6 14 9 4 11 13 11 8 4 3 4 6 8 8 7 8 9 8 9 10 10 10 10 12 11 11 11 9 11 10 9 8 8 8 8 7 6 6 5 6 7 8 7 7 6 5 4 4 4 4 4 3 4 4 3 3 4 4 4 4 4 4
4 2 4 3 2 8 7 3 4 5 4 6 8 10 14 5 3 12 13 12 12 12 8 6 6 12 4 6 10 3 3 4 3 5 7 6 7 8 8 8 7 8 9 10 9 10 10 10 9 8 10 11 12 12 10 9 8 7 7 7 7 7 6 6 8 7 8 7 5 5 4 4 4 3 3 3 3 3 3 4 3 3 3 3 3 4
4 3 3 2 3 6 1 5 4 3 1 5 12 19 13 4 11 14 10 9 7 13 13 9 10 13 5 6 2 3 5 8 11 8 5 6 7 8 8 7 8 9 9 10 9 9 9 10 10 11 13 13 12 10 9 9 9 9 9 8 8 7 6 7 8 8 7 6 5 4 4 4 4 3 3 3 3 3 3 2 2 2 3 3 3 3
6 5 4 3 4 8 2 2 3 2 1 6 18 21 13 15 17 5 4 9 16 15 11 11 16 8 4 7 8 6 6 4 4 4 5 4 6 8 9 9 9 8 8 8 9 9 10 11 13 14 13 9 9 10 11 10 10 10 10 10 8 7 7 7 8 8 7 5 5 4 4 4 3 2 2 2 3 2 2 2 1 1 2 2 3 3
4 6 4 4 3 0 4 3 3 4 8 16 3 1 10 18 17 14 12 12 10 11 9 5 4 3 8 7 9 8 9 7 7 6 2 6 7 7 7 6 6 7 7 7 5 7 8 8 7 8 8 9 9 9 8 10 11 9 8 8 8 9 8 9 7 7 7 6 4 4 4 4 3 3 3 3 3 2 2 2 1 1 2 2 2 2
8 6 4 3 3 3 3 5 2 10 16 1 4 3 2 3 3 14 16 8 8 9 6 5 3 4 8 9 6 2 3 2 1 3 3 4 4 5 6 7 8 8 8 6 4 5 6 7 6 6 6 8 9 8 9 8 7 9 9 9 9 7 9 7 8 7 7 6 5 4 3 4 3 3 3 3 3 2 2 1 1 2 2 2 3 4
6 7 3 0 4 4 3 6 7 11 2 5 4 4 4 4 3 3 3 6 6 10 10 10 10 6 5 4 3 2 3 1 1 2 5 5 5 6 6 7 8 7 6 7 8 8 7 8 10 12 11 7 8 8 9 10 9 10 9 7 9 8 7 7 7 8 7 7 5 5 5 4 3 3 3 3 2 2 1 1 1 2 2 2 3 2
7 4 4 5 4 6 4 8 13 4 8 6 2 2 6 5 5 6 7 7 9 10 9 7 9 8 8 2 5 4 3 2 2 7 4 7 8 7 9 9 6 7 8 6 7 8 6 7 7 7 7 8 8 9 9 9 9 10 10 9 6 7 6 6 7 9 8 6 6 6 5 5 4 3 3 2 2 1 1 1 2 2 1 2 3 4
3 9 5 6 5 8 6 5 3 3 13 10 4 1 2 2 4 2 4 5 3 4 6 9 9 14 3 7 6 5 3 2 5 8 4 9 8 7 5 3 2 4 4 4 2 2 4 5 5 6 8 10 8 8 8 10 10 11 10 9 8 7 8 7 9 9 8 8 6 6 5 4 4 4 3 2 1 0 1 1 1 2 1 3 4 4
4 2 0 9 3 4 6 8 7 8 6 2 4 3 1 1 6 4 3 6 3 6 10 11 9 6 5 9 7 5 5 2 7 8 5 5 5 6 8 7 5 5 5 6 8 8 7 7 7 8 7 8 10 9 9 10 11 11 10 9 10 7 8 9 9 10 10 8 6 5 5 4 4 4 3 2 1 1 2 2 2 2 2 3 3 4
4 2 4 0 4 6 5 7 9 3 4 2 4 2 3 2 3 3 2 7 1 8 5 7 10 8 5 8 9 7 8 5 6 8 4 9 8 8 9 8 6 6 6 5 4 4 5 7 9 7 9 11 12 10 12 10 10 10 11 10 9 9 10 11 10 9 7 7 7 5 5 5 5 4 4 3 2 2 3 2 2 2 2 3 2 3
4 1 5 12 10 10 10 6 2 6 2 1 4 3 2 2 4 3 11 3 3 6 6 7 7 5 9 8 8 7 9 7 5 3 0 3 4 3 4 4 5 5 7 6 7 6 7 8 10 13 15 13 11 11 10 10 10 10 9 10 9 12 12 8 8 9 8 7 6 6 6 4 5 5 3 3 3 2 1 2 2 3 3 3 2 3
1 3 3 0 8 10 7 6 9 5 3 6 2 5 5 3 2 7 4 2 9 6 5 6 6 6 9 12 10 8 7 4 4 3 3 4 4 3 4 4 2 1 1 3 6 8 7 8 7 5 4 5 10 11 10 11 12 10 9 8 12 12 7 9 9 9 7 7 6 6 6 5 3 4 3 3 2 2 2 2 2 2 3 2 3 5
9 7 7 9 2 3 2 7 2 9 2 9 9 3 3 4 7 4 2 1 2 5 9 6 6 7 10 8 9 10 4 3 4 3 3 3 3 3 4 5 7 8 7 5 5 7 9 8 9 11 11 8 9 10 10 11 12 10 9 12 13 8 8 9 9 8 7 7 7 6 6 4 5 4 3 2 3 2 3 2 2 3 3 3 3 5
4 4 3 4 5 6 7 9 8 3 8 11 14 8 5 8 5 6 7 3 1 4 7 7 6 8 9 9 10 8 6 3 1 3 3 3 4 3 2 4 4 4 4 5 5 9 10 11 10 9 6 7 8 9 10 13 13 11 12 16 7 8 7 8 7 7 7 6 6 6 5 4 3 3 3 3 2 2 3 3 3 3 3 3 3 4
5 8 5 6 4 8 8 4 1 1 9 12 7 4 6 5 4 8 6 7 7 5 4 4 8 7 10 10 7 7 5 5 6 5 7 7 7 7 8 9 9 9 9 10 9 7 8 11 11 9 6 7 8 8 10 9 13 12 15 9 9 10 10 9 8 8 7 6 6 5 4 3 3 3 3 3 3 3 3 3 2 3 2 2 2 3
3 2 2 3 5 1 2 4 1 1 2 6 5 3 2 2 1 3 6 4 5 6 9 9 7 8 8 6 6 3 6 6 7 6 5 6 5 5 4 3 4 6 5 3 3 7 8 6 4 6 9 7 7 9 8 10 9 15 15 7 9 9 10 10 10 8 7 6 6 6 4 3 3 2 3 3 3 3 3 3 3 3 3 2 3 3
2 1 1 3 3 0 7 2 4 4 2 5 10 6 1 1 4 4 3 5 4 5 7 5 2 6 7 8 9 9 9 8 7 7 7 5 6 6 6 7 7 7 8 9 9 6 5 6 8 9 10 11 10 10 9 10 10 6 3 8 8 8 9 9 9 8 7 7 6 4 5 4 4 3 2 3 3 3 3 3 3 3 3 3 3 3
4 4 2 4 1 4 5 2 3 3 3 4 4 5 6 8 5 4 5 2 2 4 5 5 2 2 5 5 9 9 10 8 8 8 6 7 8 8 8 8 9 6 8 8 5 8 7 8 10 11 11 12 11 10 9 9 9 6 6 6 9 7 7 7 8 8 8 8 6 5 6 5 4 4 3 3 3 3 3 3 4 4 5 5 4 4
4 5 4 4 4 2 1 2 2 3 3 4 5 6 8 7 4 5 5 3 2 4 4 4 6 7 8 11 10 10 9 7 9 9 8 7 6 6 8 10 10 10 7 6 8 10 12 11 12 13 13 13 8 9 10 10 8 7 9 9 9 11 11 9 7 6 6 4 5 5 4 4 4 4 3 3 3 3 4 4 3 5 5 6 5 7
4 6 2 3 1 4 6 5 5 2 4 6 8 11 11 11 6 4 1 3 6 7 7 7 7 5 8 7 7 9 11 10 9 7 8 9 9 9 8 8 8 8 7 7 7 9 10 10 12 12 13 11 7 10 10 10 9 8 8 8 9 9 10 8 7 6 5 5 5 4 4 4 4 3 4 3 3 3 4 7 11 9 7 7 11 16
9 10 7 7 8 6 6 8 9 8 6 7 7 8 10 6 5 7 9 10 9 9 8 8 7 6 8 9 7 10 11 10 9 8 8 8 9 10 10 9 8 7 9 7 7 7 11 12 10 9 9 9 8 9 10 9 9 8 8 8 8 9 8 8 7 5 5 6 6 6 4 4 4 3 3 3 3 2 4 6 7 10 13 14 13 14
Wind_Direction
113 137 179 205 213 201 203 198 202 152 142 100 100 115 196 213 278 271 247 257 315 61 235 245 257 261 274 14 341 351 23 53 52 57 51 36 39 33 33 41 38 50 39 320 339 6 1 2 3 2 7 5 19 22 15 27 31 34 33 45 42 22 27 43 47 47 47 64 76 63 59 64 53 52 51 52 44 45 38 31 35 35 35 32 37 31
69 168 231 225 212 186 204 178 107 91 84 159 137 172 250 171 250 230 212 11 311 165 292 61 328 266 267 12 1 351 42 37 24 45 51 43 21 5 21 33 15 5 321 7 16 11 8 9 10 11 14 13 20 7 11 26 26 33 37 53 51 32 43 41 43 63 63 53 64 86 72 79 59 46 46 47 42 41 41 39 37 36 33 35 40 37
135 204 226 228 129 107 79 156 172 181 177 93 185 187 258 256 241 286 255 353 295 130 262 72 259 267 222 56 44 49 63 59 32 28 24 20 337 327 8 27 35 41 35 16 18 11 10 10 14 20 16 12 8 1 18 11 28 30 36 41 46 44 51 49 47 57 72 70 64 80 85 79 84 62 62 64 57 51 52 46 42 39 38 38 39 36
220 277 242 152 139 122 59 100 130 103 104 161 102 141 230 210 136 288 283 348 349 157 267 207 310 272 82 101 67 22 78 105 52 72 57 7 263 337 360 354 20 39 27 25 8 3 4 12 17 17 15 360 358 16 21 16 24 26 35 37 46 48 46 47 40 62 76 83 86 77 84 78 73 80 73 73 59 53 49 45 39 40 39 40 46 40
199 208 350 138 155 162 174 133 135 156 221 259 192 206 227 176 228 190 242 260 328 14 59 217 330 290 159 205 100 97 131 89 7 46 48 4 330 299 301 12 18 16 6 13 10 9 8 13 14 7 355 339 20 26 23 13 15 21 29 38 50 54 55 54 45 46 71 100 89 92 85 85 92 70 61 58 47 43 48 52 37 32 33 38 43 40
286 248 112 88 104 145 133 170 207 158 214 292 229 206 212 200 216 252 2 345 15 315 324 166 348 300 262 255 195 180 160 87 5 86 36 312 332 2 54 19 2 10 4 359 350 354 353 3 358 3 356 3 25 33 18 3 8 15 33 39 49 59 53 52 51 49 74 67 86 99 87 74 67 61 43 46 47 38 39 49 46 44 37 37 43 40
204 48 167 171 142 155 175 197 229 158 177 121 266 198 212 200 168 139 148 99 239 196 275 47 169 252 326 254 198 166 157 154 111 161 247 272 258 303 257 300 342 349 357 4 8 359 17 2 7 3 1 347 27 27 9 13 17 21 41 47 48 51 52 43 51 52 76 81 77 75 77 83 79 90 69 69 57 63 60 57 51 50 42 37 42 40
123 75 98 100 133 152 157 232 233 160 135 227 250 134 143 142 173 189 158 176 218 274 308 20 120 182 313 286 149 156 158 185 197 204 217 231 214 221 215 246 266 294 282 328 342 345 343 343 338 358 341 347 355 357 26 40 20 30 36 52 55 52 53 41 42 59 43 83 82 86 84 76 79 81 97 80 74 69 69 65 55 52 48 45 42 43
154 175 166 165 167 158 210 208 174 168 145 221 133 123 146 163 179 145 149 179 253 345 266 328 304 313 237 261 46 192 176 212 219 198 204 204 209 204 212 214 219 227 234 222 241 331 308 308 329 333 352 335 359 5 27 36 32 30 34 54 61 56 52 42 46 61 56 70 82 87 93 91 81 90 90 90 79 75 62 70 56 54 50 48 45 43
314 165 207 163 147 211 216 285 169 170 185 214 125 92 86 79 69 95 102 103 359 86 257 248 194 229 273 275 333 3 281 248 208 202 202 202 196 198 199 205 206 206 206 216 222 253 272 278 299 303 302 14 6 4 20 39 43 41 43 61 62 54 46 41 52 62 65 67 79 88 91 96 96 91 88 81 76 69 59 70 58 52 50 43 43 40
250 299 167 123 192 197 129 38 132 95 89 133 108 76 42 42 45 45 68 84 58 276 245 229 211 190 290 239 212 167 214 197 149 190 209 213 219 223 213 201 196 189 192 193 219 265 271 283 272 308 82 24 35 28 42 49 47 46 57 72 68 49 49 46 54 64 70 70 68 84 86 92 99 92 94 90 73 69 64 67 59 56 54 49 48 42
21 15 201 256 84 105 96 74 29 81 134 128 114 130 89 17 10 34 342 34 174 265 259 318 267 278 203 291 268 231 281 194 166 180 186 193 203 203 201 203 198 189 186 191 204 219 245 221 333 91 88 67 57 55 60 63 61 64 68 82 82 58 51 52 60 74 71 75 72 76 84 90 90 97 93 88 89 78 80 71 71 67 63 53 53 47
272 216 227 355 200 128 112 88 21 44 320 71 87 96 126 237 46 263 22 249 211 215 242 336 302 290 241 230 261 272 217 221 217 190 179 185 192 194 197 196 190 185 183 194 196 195 210 194 187 157 143 106 90 97 87 83 84 79 77 81 92 73 56 62 63 74 73 76 73 82 87 90 92 89 91 91 89 82 80 77 73 62 61 52 50 39
270 346 176 197 87 226 145 137 165 81 214 136 161 153 115 131 100 243 265 272 312 288 289 322 159 274 254 284 231 203 214 220 224 300 226 185 185 187 188 187 181 188 195 195 190 195 198 197 200 199 161 146 137 115 104 99 93 88 87 85 90 88 67 75 72 73 80 72 77 76 86 88 95 91 89 85 91 84 78 77 75 66 61 59 52 43
207 298 239 149 234 169 183 183 174 161 162 206 78 155 183 140 154 211 187 205 218 201 276 281 99 233 135 233 352 330 348 324 301 290 286 257 208 187 176 167 180 194 206 196 191 196 197 202 203 196 188 177 154 141 120 112 105 104 97 97 100 96 79 81 81 80 81 84 80 83 79 83 84 97 91 87 85 86 85 72 78 72 66 66 55 51
211 230 268 298 271 154 181 239 116 96 64 190 179 76 95 235 146 205 203 155 207 295 303 220 215 193 183 146 304 18 29 347 326 256 228 223 203 168 169 188 197 204 202 188 194 204 210 206 204 200 203 191 178 155 142 121 122 112 109 104 98 105 108 95 93 85 92 94 93 88 91 90 93 94 93 90 82 75 75 78 77 76 70 64 56 54
48 266 311 337 67 141 183 135 107 145 188 198 112 201 210 134 98 91 76 57 69 45 255 147 287 291 306 330 26 343 108 243 217 211 201 210 196 180 197 200 206 208 196 186 198 198 198 200 210 210 201 192 182 167 152 147 142 134 128 122 113 109 105 107 107 114 110 115 106 96 97 103 97 94 93 98 91 86 77 80 79 77 72 65 53 45
142 232 290 110 204 309 175 195 107 35 148 100 184 228 169 157 122 128 220 10 68 204 269 119 217 234 113 255 69 23 263 231 209 196 207 202 179 195 204 204 206 202 196 197 196 198 197 196 200 204 208 199 187 169 156 153 154 137 137 134 129 132 129 136 135 130 136 123 111 114 102 93 96 101 102 100 104 99 92 77 72 68 57 46 41 40
121 279 269 290 102 338 13 113 59 10 42 150 192 204 124 218 184 302 85 255 221 257 268 279 283 263 190 224 106 228 208 220 198 187 181 192 195 203 205 210 209 198 184 183 192 195 198 199 200 197 202 199 190 174 169 158 154 150 144 148 145 146 150 151 146 132 122 122 116 117 122 122 114 107 101 102 104 97 74 63 54 52 52 47 35 33
51 161 276 338 140 201 42 133 185 199 320 54 80 77 328 112 167 127 197 180 119 263 52 283 116 246 189 212 182 202 202 199 162 180 205 200 195 193 199 202 201 196 187 188 195 198 195 196 197 194 193 191 185 178 179 169 157 173 172 161 162 140 139 137 140 143 135 137 129 121 111 98 109 113 108 98 85 69 68 64 58 51 47 41 31 29
170 139 220 296 283 99 171 193 209 166 164 80 106 195 99 16 228 105 356 137 185 190 199 282 297 270 257 210 178 198 194 185 175 192 197 195 196 201 201 197 197 188 186 192 195 192 189 192 195 197 195 190 173 167 167 175 179 181 171 173 172 161 159 156 162 152 150 139 141 134 122 119 113 93 84 76 70 75 66 60 53 49 46 36 36 22
128 185 187 138 150 222 238 252 238 184 189 175 167 188 175 134 143 173 253 64 104 151 240 149 262 250 264 113 219 238 237 190 208 186 180 188 195 200 202 203 192 184 193 195 197 183 180 189 193 192 187 175 165 178 184 191 180 179 186 182 163 156 165 160 170 165 159 159 134 119 110 96 85 77 75 78 70 70 66 56 49 41 37 40 24 21
158 132 106 183 198 194 228 327 277 252 146 169 173 217 184 185 131 159 228 219 39 254 93 185 343 268 223 221 218 233 233 206 183 180 191 193 197 201 203 195 186 187 194 196 181 177 184 188 188 184 183 182 183 188 189 186 190 189 185 170 172 164 182 180 167 158 141 126 113 92 81 80 73 80 81 79 71 69 59 54 48 38 40 31 19 14
109 101 150 302 325 322 340 268 25 102 107 37 267 98 135 200 187 207 216 170 178 156 132 344 248 269 287 180 271 249 234 217 175 186 199 200 203 203 190 186 193 199 191 153 163 176 185 181 172 174 185 187 190 192 193 195 195 186 170 177 177 177 171 164 147 143 120 101 86 87 86 82 88 83 79 76 73 73 61 56 50 41 41 30 14 19
148 236 131 134 48 341 345 339 342 8 308 214 182 188 200 169 74 108 90 63 218 214 164 146 245 247 223 21 351 18 101 174 194 205 191 204 202 194 195 196 202 178 145 165 176 180 178 179 185 194 190 188 189 191 194 194 190 177 181 186 179 161 149 140 153 130 121 113 104 93 90 89 86 86 82 83 79 74 66 56 50 38 34 25 16 18
224 180 156 187 200 198 210 196 208 208 204 194 157 104 204 184 164 120 223 163 225 207 146 205 245 237 283 344 26 153 188 231 257 212 225 215 189 189 197 200 192 174 184 180 180 171 185 194 193 185 190 190 193 194 191 192 187 187 187 189 171 147 146 155 152 148 129 120 110 102 99 101 94 90 92 94 88 79 68 58 45 35 27 27 11 16
205 328 219 215 211 230 239 210 267 110 81 176 216 178 200 206 193 191 102 177 217 160 193 227 226 256 259 156 230 234 186 202 208 196 206 211 214 210 206 197 185 184 184 185 180 186 180 185 197 197 192 196 196 191 189 186 188 191 182 165 164 165 156 152 140 132 122 113 112 111 104 102 101 105 103 95 88 78 66 55 45 35 31 20 17 19
69 261 251 295 288 325 145 67 331 147 170 204 172 217 209 188 185 191 195 224 135 116 248 240 124 205 247 203 206 217 226 230 229 213 212 222 215 204 198 177 160 174 182 160 168 176 189 200 197 194 200 198 197 189 190 189 189 186 175 168 167 160 148 141 129 125 120 117 107 107 110 106 109 99 93 90 84 74 63 55 41 34 25 27 19 20
144 214 257 172 273 290 61 104 51 78 173 183 195 204 200 202 174 199 220 222 145 209 242 239 176 219 243 211 191 204 197 203 203 208 207 202 168 152 154 177 186 189 174 176 189 193 195 195 200 202 199 198 187 189 190 186 184 173 159 152 155 151 154 147 129 121 117 108 109 114 118 112 96 90 89 83 81 68 56 47 38 27 29 24 21 14
114 256 207 173 255 263 237 181 189 181 250 282 236 227 226 198 199 202 219 218 205 239 253 263 212 232 238 159 190 209 207 198 188 121 124 159 184 180 183 196 195 185 184 194 199 200 200 205 203 200 193 189 191 191 186 180 176 175 168 164 157 147 146 137 128 123 117 113 119 117 104 93 89 88 87 81 76 67 52 48 31 28 26 17 14 4
134 267 110 166 224 258 248 128 164 191 182 241 248 245 240 221 182 218 225 230 225 247 252 100 215 250 243 185 198 230 142 135 131 178 182 159 152 175 188 197 192 189 195 201 199 204 207 207 203 190 191 195 194 193 185 180 172 166 166 157 154 152 148 134 125 119 121 123 122 116 107 100 98 96 92 85 81 67 53 41 27 29 20 10 2 354
164 249 76 152 216 264 240 168 192 127 114 224 261 254 240 164 228 227 219 218 207 227 229 223 239 249 223 197 134 138 154 174 199 199 161 179 181 174 185 191 192 199 200 201 203 202 204 202 193 191 197 200 194 183 176 176 174 163 172 161 159 146 133 126 122 124 122 124 126 118 114 113 113 105 102 93 78 71 61 48 34 28 13 353 350 344
184 161 156 160 210 238 1 137 136 94 343 291 248 246 243 232 233 232 231 210 213 214 218 218 235 242 176 175 166 208 181 212 217 182 187 205 199 188 192 195 201 207 205 204 202 200 199 194 194 196 199 193 183 183 189 171 159 180 169 164 154 133 135 133 130 127 125 129 124 122 121 124 124 125 119 101 105 90 87 80 41 34 353 344 325 315
143 168 173 169 185 205 5 67 101 140 217 236 283 160 214 227 226 220 229 212 212 183 213 199 217 146 151 172 184 200 192 213 208 223 171 175 183 201 214 212 215 216 220 223 211 193 192 191 196 200 195 190 187 185 169 170 174 171 157 148 136 144 141 135 132 131 135 135 137 138 135 135 139 144 141 140 122 114 98 90 36 353 321 322 321 326
175 180 194 155 177 222 112 105 192 215 239 2 313 309 16 326 257 222 231 212 203 219 242 268 220 177 188 189 193 176 193 230 298 175 198 209 176 182 190 212 225 224 229 222 211 209 202 194 184 168 175 187 178 166 156 165 152 133 133 147 147 152 143 147 138 137 148 150 149 143 146 151 158 161 158 143 121 103 81 61 346 338 334 335 324 323
174 172 132 151 119 57 108 189 224 243 262 285 277 293 308 69 66 96 318 263 215 204 206 221 238 216 218 208 100 130 118 98 21 245 220 232 196 179 185 215 223 210 212 210 204 215 193 187 187 188 193 163 146 162 170 165 151 149 154 150 151 151 151 148 152 152 150 155 163 161 162 163 164 163 146 125 100 87 34 2 328 323 321 314 299 282
175 136 159 220 164 195 194 197 238 347 315 252 299 239 172 154 167 159 222 259 206 199 182 197 232 242 230 129 133 102 86 64 352 290 228 211 215 210 197 213 205 208 209 220 200 214 204 196 192 182 143 154 165 162 173 155 153 149 146 155 159 154 155 155 164 171 170 168 168 170 168 163 156 155 142 125 108 99 295 322 305 306 293 295 293 295
212 191 196 206 221 168 185 244 306 267 248 248 213 237 110 154 126 164 102 284 266 205 177 174 212 230 177 117 129 137 101 52 315 279 248 222 214 205 235 237 204 206 211 210 169 181 162 162 136 140 157 159 168 172 153 154 154 151 155 161 160 162 169 174 186 175 173 172 168 164 161 156 151 153 140 133 131 169 281 273 281 271 263 284 293 291
27 81 71 202 227 93 199 224 221 231 247 143 186 173 233 190 137 109 68 282 262 183 196 180 206 229 173 151 142 133 79 182 251 252 248 220 204 201 199 215 206 209 207 197 188 187 176 162 152 147 142 154 167 174 159 156 153 153 166 169 173 175 176 193 187 177 176 169 157 153 152 154 154 147 146 145 178 187 228 253 252 262 266 254 262 273
123 143 146 33 210 213 196 229 234 235 259 273 193 206 204 202 137 70 324 276 247 207 179 167 199 209 135 144 146 140 149 189 244 257 202 200 191 190 183 189 199 213 223 201 207 178 147 134 121 139 161 181 192 163 161 159 163 170 171 178 169 180 196 198 188 168 144 141 147 151 153 156 154 151 151 169 180 203 222 245 253 255 271 277 275 281
173 232 201 209 214 224 223 258 328 285 258 173 183 176 159 188 76 111 237 227 218 193 202 185 200 169 145 143 160 162 226 187 197 194 144 120 118 168 227 215 200 195 192 183 188 147 151 171 171 177 189 195 170 161 165 163 163 180 181 171 176 203 204 177 150 148 149 144 147 152 155 159 157 154 168 169 187 203 234 237 262 276 268 277 283 280
7 86 327 117 223 221 225 220 239 271 223 165 295 151 185 105 180 207 236 190 153 200 206 191 173 160 159 165 184 204 217 174 118 90 115 168 174 181 193 197 157 126 103 166 171 168 173 178 195 199 192 169 164 168 168 168 178 185 173 174 203 208 155 150 153 147 149 155 158 159 160 159 155 156 166 173 163 182 238 242 244 262 266 270 282 290
183 150 200 199 204 53 126 238 245 243 182 130 126 46 290 134 239 193 138 344 179 175 165 202 183 189 170 194 209 209 202 127 170 169 181 186 206 208 174 167 190 199 187 154 178 203 175 181 196 204 197 172 167 168 176 175 183 183 178 197 211 160 155 155 151 153 156 156 160 166 165 164 160 167 158 170 180 188 233 250 256 259 257 263 280 282
208 111 236 241 183 175 187 204 213 221 146 177 143 178 209 201 185 162 134 177 188 159 179 176 215 190 189 185 201 225 229 198 279 215 188 233 235 223 193 213 217 214 212 220 210 191 182 195 199 199 180 171 174 177 177 180 185 187 188 213 157 147 152 154 154 154 157 166 169 162 169 171 165 166 172 176 179 189 225 251 252 257 243 258 263 280
215 180 186 184 207 157 200 208 245 229 165 189 183 171 206 182 159 173 144 163 165 231 189 184 200 191 197 200 205 197 203 208 216 188 179 212 208 203 202 209 202 204 208 206 210 188 189 197 197 186 183 188 182 187 188 193 190 187 204 199 147 167 162 158 156 157 168 173 173 173 174 155 171 176 190 196 175 196 213 247 231 260 256 256 274 268
339 140 190 86 263 253 268 181 146 55 242 222 263 217 164 155 226 149 148 136 225 181 167 185 207 194 199 198 176 212 203 213 208 218 217 235 215 223 215 226 230 230 228 212 191 185 195 191 169 175 195 204 197 196 196 202 192 192 212 152 164 163 161 154 156 167 177 178 175 184 158 170 205 202 207 209 193 197 205 213 228 238 269 249 257 253
252 137 100 199 274 276 268 59 160 203 211 205 221 239 176 212 193 183 184 201 189 167 194 229 181 195 193 174 189 198 215 208 202 214 209 218 224 228 217 220 233 216 208 208 214 162 163 173 185 199 199 210 206 201 204 202 214 215 113 167 158 158 155 158 164 169 173 184 182 170 163 175 208 212 211 204 211 205 207 210 206 225 249 245 245 254
311 175 126 231 217 181 244 226 234 299 258 252 237 243 250 241 206 208 219 187 134 170 184 202 144 158 141 177 206 205 222 210 195 213 211 215 217 218 216 220 228 233 226 214 187 176 174 184 200 207 205 218 209 198 198 201 207 182 154 151 155 146 149 161 175 177 184 183 180 180 177 183 196 202 211 209 187 215 228 224 213 212 229 226 223 215
182 118 211 191 190 270 11 293 276 340 330 275 244 241 239 246 203 212 219 207 160 167 205 207 200 188 174 207 202 206 217 220 203 205 206 217 223 223 221 220 219 220 213 189 198 180 190 197 204 211 207 221 198 183 192 200 192 171 169 163 157 158 161 173 178 181 180 176 169 193 177 185 196 198 202 231 228 230 218 218 219 229 242 236 217 228
107 222 192 85 254 239 181 212 154 129 266 250 226 227 232 234 209 221 170 196 205 209 206 201 227 219 210 217 197 196 205 217 214 203 216 223 219 219 221 225 226 221 219 208 181 193 204 205 206 210 213 218 181 183 192 194 186 178 173 163 164 162 167 166 165 177 195 183 189 189 185 196 200 200 202 210 231 262 282 242 238 234 231 251 244 245
178 214 146 195 212 235 232 206 196 204 224 222 207 219 223 219 178 207 226 228 227 217 202 193 215 225 227 230 200 189 207 212 218 195 220 234 233 222 216 214 218 220 222 192 177 202 207 214 212 215 221 213 181 187 189 188 181 176 176 166 166 166 164 158 167 185 195 189 201 194 190 190 197 205 196 210 212 236 261 309 293 277 271 271 270 268